| time (UTC) | temp C | wind direction | speed KPH | gust KPH | rain 1hr cm | rain 24hr cm | rain mn cm | humidity % | barometer mb |
| 20260506135004 | 28 | 166 | 12.9 | 20.9 | 0.00 | 0.00 | 0.00 | 23 | 1009.5 |
| 20260506134004 | 29 | 202 | 11.3 | 20.9 | 0.00 | 0.00 | 0.00 | 21 | 1009.8 |
| 20260506133005 | 29 | 192 | 8.0 | 20.9 | 0.00 | 0.00 | 0.00 | 22 | 1009.7 |
| 20260506132005 | 30 | 232 | 4.8 | 25.7 | 0.00 | 0.00 | 0.00 | 22 | 1009.5 |
| 20260506131004 | 31 | 227 | 8.0 | 20.9 | 0.00 | 0.00 | 0.00 | 19 | 1009.2 |
| 20260506130005 | 31 | 279 | 3.2 | 24.1 | 0.00 | 0.00 | 0.00 | 20 | 1009.3 |
| 20260506124005 | 30 | 349 | 8.0 | 19.3 | 0.00 | 0.00 | 0.00 | 20 | 1009.4 |
| 20260506123004 | 31 | 256 | 4.8 | 27.4 | 0.00 | 0.00 | 0.00 | 19 | 1009.5 |
| 20260506122004 | 30 | 69 | 4.8 | 24.1 | 0.00 | 0.00 | 0.00 | 20 | 1009.6 |
| 20260506121004 | 30 | 182 | 6.4 | 27.4 | 0.00 | 0.00 | 0.00 | 20 | 1009.5 |
| 20260506115004 | 30 | 254 | 12.9 | 22.5 | 0.00 | 0.00 | 0.00 | 20 | 1009.5 |
| 20260506114005 | 30 | 271 | 4.8 | 24.1 | 0.00 | 0.00 | 0.00 | 20 | 1009.5 |
| 20260506113005 | 30 | 245 | 12.9 | 22.5 | 0.00 | 0.00 | 0.00 | 20 | 1009.4 |
| 20260506110005 | 28 | 259 | 6.4 | 25.7 | 0.00 | 0.00 | 0.00 | 22 | 1009.4 |
| 20260506105005 | 28 | 290 | 6.4 | 20.9 | 0.00 | 0.00 | 0.00 | 22 | 1009.6 |
| 20260506103005 | 28 | 201 | 11.3 | 40.2 | 0.00 | 0.00 | 0.00 | 22 | 1009.4 |
| 20260506101005 | 28 | 196 | 12.9 | 29.0 | 0.00 | 0.00 | 0.00 | 22 | 1009.4 |
| 20260506100004 | 27 | 191 | 14.5 | 37.0 | 0.00 | 0.00 | 0.00 | 20 | 1009.7 |
| 20260506095004 | 27 | 214 | 14.5 | 27.4 | 0.00 | 0.00 | 0.00 | 20 | 1009.5 |
| 20260506094005 | 27 | 207 | 12.9 | 30.6 | 0.00 | 0.00 | 0.00 | 20 | 1009.8 |
| 20260506093005 | 27 | 196 | 17.7 | 27.4 | 0.00 | 0.00 | 0.00 | 21 | 1009.6 |
| 20260506092004 | 26 | 231 | 14.5 | 37.0 | 0.00 | 0.00 | 0.00 | 22 | 1009.9 |
| 20260506090005 | 26 | 195 | 19.3 | 32.2 | 0.00 | 0.00 | 0.00 | 23 | 1009.7 |
| 20260506085005 | 26 | 209 | 12.9 | 33.8 | 0.00 | 0.00 | 0.00 | 22 | 1009.8 |
| 20260506084004 | 25 | 225 | 20.9 | 32.2 | 0.00 | 0.00 | 0.00 | 24 | 1009.6 |
| 20260505211004 | 18 | 187 | 3.2 | 6.4 | 0.00 | 0.00 | 0.00 | 30 | 1010.5 |
| 20260505210004 | 18 | 195 | 4.8 | 8.0 | 0.00 | 0.00 | 0.00 | 30 | 1010.5 |
| 20260505205003 | 19 | 202 | 4.8 | 12.9 | 0.00 | 0.00 | 0.00 | 28 | 1010.5 |
| 20260505204004 | 19 | 200 | 8.0 | 16.1 | 0.00 | 0.00 | 0.00 | 28 | 1010.6 |
| 20260505203004 | 20 | 195 | 4.8 | 14.5 | 0.00 | 0.00 | 0.00 | 27 | 1010.6 |
| 20260505201004 | 20 | 188 | 8.0 | 12.9 | 0.00 | 0.00 | 0.00 | 25 | 1010.6 |
| 20260505200004 | 20 | 199 | 9.7 | 17.7 | 0.00 | 0.00 | 0.00 | 24 | 1010.5 |
| 20260505194004 | 21 | 195 | 8.0 | 17.7 | 0.00 | 0.00 | 0.00 | 22 | 1010.3 |
| 20260505193004 | 21 | 177 | 11.3 | 17.7 | 0.00 | 0.00 | 0.00 | 22 | 1010.2 |
| 20260505192003 | 21 | 190 | 8.0 | 16.1 | 0.00 | 0.00 | 0.00 | 22 | 1010.2 |
| 20260505191004 | 21 | 183 | 11.3 | 19.3 | 0.00 | 0.00 | 0.00 | 22 | 1010.3 |
| 20260505185003 | 21 | 197 | 6.4 | 19.3 | 0.00 | 0.00 | 0.00 | 21 | 1010.2 |
| 20260505183005 | 22 | 203 | 6.4 | 12.9 | 0.00 | 0.00 | 0.00 | 19 | 1010.0 |
| 20260505182004 | 22 | 174 | 6.4 | 16.1 | 0.00 | 0.00 | 0.00 | 19 | 1010.2 |
| 20260505180004 | 23 | 181 | 8.0 | 14.5 | 0.00 | 0.00 | 0.00 | 20 | 1009.9 |
| 20260505175003 | 23 | 187 | 6.4 | 17.7 | 0.00 | 0.00 | 0.00 | 18 | 1010.1 |
| 20260505174004 | 24 | 178 | 6.4 | 17.7 | 0.00 | 0.00 | 0.00 | 16 | 1010.2 |
| 20260505152004 | 30 | 187 | 17.7 | 24.1 | 0.00 | 0.00 | 0.00 | 10 | 1010.0 |
| 20260505151003 | 31 | 176 | 12.9 | 17.7 | 0.00 | 0.00 | 0.00 | 10 | 1010.2 |